769  
ASUS43 KFSD 050410  
RWRFSD  
 
WEATHER ROUNDUP FOR SE SOUTH DAKOTA/SW MINNESOTA/NW IOWA  
NATIONAL WEATHER SERVICE SIOUX FALLS SD  
1000 PM CST MON MAR 04 2024  
 
NOTE: "FAIR" INDICATES FEW OR NO CLOUDS BELOW 12,000 FEET WITH NO  
SIGNIFICANT WEATHER AND OR S TO VISIBILITY
.  
 
 
SDZ038>040-050-052>070-050500-  
SOUTHEAST SOUTH DAKOTA  
 
CITY SKY/WX TMP DP RH WIND PRES REMARKS
 
BROOKINGS CLEAR 25 16 68 NE6 30.07S WCI 18 TC -4  
CHAMBERLAIN PTCLDY 24 16 72 E5 30.03S WCI 18 TC -5  
HURON CLEAR 22 16 78 E6 30.07S WCI 14 TC -6  
MITCHELL CLEAR 25 16 68 NE5 30.07S WCI 19 TC -4  
SIOUX FALLS PTCLDY 27 15 61 NE6 30.07R WCI 20 TC -3  
WINNER MOCLDY 28 16 60 SE12 30.00R WCI 18 TC -2  
YANKTON CLEAR 32 19 58 NE9 30.05S WCI 24 TC 0  

 
 
MNZ071-072-080-081-089-090-097-098-050500-  
SOUTHWEST MINNESOTA  
 
CITY SKY/WX TMP DP RH WIND PRES REMARKS
 
FAIRMONT PTCLDY 26 15 63 N8 30.05S WCI 18 TC -3  
JACKSON PTCLDY 28 14 54 N8 30.05R WCI 20 TC -2  
LUVERNE CLEAR 28 14 54 NE5 30.08R WCI 23 TC -2  
MARSHALL CLEAR 24 11 57 NW6 30.11R WCI 17 TC -4  
MONTEVIDEO CLEAR 25 12 58 N8 30.11S WCI 16 TC -4  
REDWOOD FALLS CLEAR 27 11 51 NW7 30.10R WCI 19 TC -3  
TRACY CLEAR 25 10 54 N6 30.09R WCI 18 TC -4  
WINDOM CLEAR 25 12 58 N12 30.06R WCI 14 TC -4  
WORTHINGTON CLEAR 26 13 57 N10 30.07R WCI 16 TC -3  

 
 
IAZ001>003-012>014-020>022-031-032-NEZ013-014-SDZ071-050500-  
NORTHWEST IOWA  
 
CITY SKY/WX TMP DP RH WIND PRES REMARKS
 
CHEROKEE PTCLDY 33 18 55 N6 30.03S WCI 27 TC 0  
DENISON CLEAR 32 21 64 N8 30.02S WCI 25 TC 0  
ESTHERVILLE PTCLDY 25 14 63 N9 30.03S WCI 15 TC -4  
MAURICE MOCLDY 28 16 59 NE10 30.04R WCI 19 TC -2  
SHELDON CLEAR 27 14 59 N10 30.04R WCI 17 TC -3  
SIOUX CITY CLEAR 36 20 52 NE9 30.03R TC 2  
SPENCER PTCLDY 29 16 58 N10 30.04S WCI 20 TC -2  
STORM LAKE CLEAR 32 18 55 N13 30.02R WCI 22 TC 0  

 
 
ABBREVIATIONS USED IN REMARKS  
TC - TEMPERATURE IN CELSIUS  
WCI - WIND CHILL INDEX  
HX - HEAT INDEX  
VSB - VISIBILITY  
 
 
 
CLICK HERE TO GO TO PREVIOUS BULLETINS.

The Nexlab SD Page
The Nexlab IA Page
The Nexlab MN Page
The Nexlab NE Page Main Text Page